datetime,ave SJC release
2017-01-01,41.3247
2017-01-02,41.3247
2017-01-03,43.3067
2017-01-04,43.3067
2017-01-05,43.3067
2017-01-06,43.3067
2017-01-07,43.3067
2017-01-08,43.3067
2017-01-09,43.3067
2017-01-10,43.3067
2017-01-11,46.40853
2017-01-12,46.40853
2017-01-13,46.40853
2017-01-14,44.85266
2017-01-15,44.85266
2017-01-16,44.85266
2017-01-17,44.85266
2017-01-18,44.85266
2017-01-19,31.47416
2017-01-20,31.47416
2017-01-21,63.301405
2017-01-22,67.6881491
2017-01-23,100.091
2017-01-24,95.5494947
2017-01-25,77.2910217
2017-01-26,87.208
2017-01-27,78.289
2017-01-28,78.289
2017-01-29,78.289
2017-01-30,78.289
2017-01-31,78.289
2017-02-01,78.289
2017-02-02,78.289
2017-02-03,53.8167092
2017-02-04,51.9381035
2017-02-05,67.9362295
2017-02-06,32.17777
2017-02-07,32.17777
2017-02-08,32.17777
2017-02-09,32.17777
2017-02-10,32.96066
2017-02-11,32.96066
2017-02-12,32.96066
2017-02-13,32.96066
2017-02-14,32.96066
2017-02-15,44.63464
2017-02-16,44.63464
2017-02-17,44.63464
2017-02-18,44.63464
2017-02-19,44.63464
2017-02-20,44.63464
2017-02-21,44.63464
2017-02-22,44.63464
2017-02-23,43.64364
2017-02-24,43.64364
2017-02-25,78.289
2017-02-26,78.289
2017-02-27,78.289
2017-02-28,78.289
2017-03-01,73.5557775
2017-03-02,78.289
2017-03-03,80.271
2017-03-04,43.64364
2017-03-05,43.64364
2017-03-06,43.64364
2017-03-07,43.64364
2017-03-08,43.64364
2017-03-09,43.64364
2017-03-10,43.64364
2017-03-11,42.87066
2017-03-12,42.87066
2017-03-13,42.87066
2017-03-14,49.80766
2017-03-15,318.93353
2017-03-16,318.93353
2017-03-17,318.93353
2017-03-18,318.93353
2017-03-19,322.03536
2017-03-20,322.03536
2017-03-21,322.03536
2017-03-22,324.3543
2017-03-23,324.3543
2017-03-24,324.3543
2017-03-25,326.69306
2017-03-26,59.12306
2017-03-27,59.12306
2017-03-28,43.604
2017-03-29,43.604
2017-03-30,52.90949
2017-03-31,52.90949
2017-04-01,48.2617
2017-04-02,52.90949
2017-04-03,52.90949
2017-04-04,52.90949
2017-04-05,51.36353
2017-04-06,51.36353
2017-04-07,51.36353
2017-04-08,50.59055
2017-04-09,54.55455
2017-04-10,54.55455
2017-04-11,54.55455
2017-04-12,54.55455
2017-04-13,54.55455
2017-04-14,55.32753
2017-04-15,47.568
2017-04-16,0.0
2017-04-17,0.0
2017-04-18,0.0
2017-04-19,0.0
2017-04-20,0.0
2017-04-21,0.0
2017-04-22,0.0
2017-04-23,0.0
2017-04-24,0.0
2017-04-25,0.0
2017-04-26,0.0
2017-04-27,0.0
2017-04-28,0.0
2017-04-29,0.0
2017-04-30,0.0
2017-05-01,0.0
2017-05-02,0.0
2017-05-03,0.0
2017-05-04,0.0
2017-05-05,0.0
2017-05-06,0.0
2017-05-07,0.0
2017-05-08,0.0
2017-05-09,0.0
2017-05-10,0.0
2017-05-11,0.0
2017-05-12,0.0
2017-05-13,0.0
2017-05-14,0.0
2017-05-15,0.0
2017-05-16,0.0
2017-05-17,0.0
2017-05-18,0.0
2017-05-19,0.0
2017-05-20,0.0
2017-05-21,0.0
2017-05-22,0.0
2017-05-23,0.0
2017-05-24,0.0
2017-05-25,0.0
2017-05-26,0.0
2017-05-27,0.0
2017-05-28,0.0
2017-05-29,0.0
2017-05-30,0.0
2017-05-31,69.0727
2017-06-01,69.0727
2017-06-02,76.26736
2017-06-03,76.26736
2017-06-04,76.26736
2017-06-05,76.26736
2017-06-06,76.26736
2017-06-07,74.71149
2017-06-08,74.71149
2017-06-09,74.71149
2017-06-10,74.71149
2017-06-11,74.71149
2017-06-12,74.71149
2017-06-13,74.71149
2017-06-14,74.71149
2017-06-15,74.71149
2017-06-16,74.71149
2017-06-17,77.68449
2017-06-18,77.68449
2017-06-19,77.68449
2017-06-20,77.68449
2017-06-21,69.75649
2017-06-22,82.34219
2017-06-23,82.34219
2017-06-24,80.78632
2017-06-25,80.78632
2017-06-26,80.78632
2017-06-27,80.78632
2017-06-28,76.9016
2017-06-29,76.9016
2017-06-30,76.9016
2017-07-01,271.2367
2017-07-02,279.97732
2017-07-03,279.97732
2017-07-04,279.97732
2017-07-05,279.97732
2017-07-06,225.77953
2017-07-07,225.77953
2017-07-08,222.49932
2017-07-09,230.42732
2017-07-10,230.42732
2017-07-11,230.425544
2017-07-12,230.425544
2017-07-13,230.425544
2017-07-14,231.98319
2017-07-15,231.98319
2017-07-16,231.98319
2017-07-17,279.97732
2017-07-18,279.97732
2017-07-19,273.77366
2017-07-20,273.77366
2017-07-21,349.65453
2017-07-22,349.65453
2017-07-23,354.30232
2017-07-24,156.10232
2017-07-25,156.10232
2017-07-26,143.695
2017-07-27,143.695
2017-07-28,154.55636
2017-07-29,148.3527
2017-07-30,148.3527
2017-07-31,74.0277
2017-08-01,74.0277
2017-08-02,80.23136
2017-08-03,75.57366
2017-08-04,67.64566
2017-08-05,75.57366
2017-08-06,75.57366
2017-08-07,75.57366
2017-08-08,75.57366
2017-08-09,78.67549
2017-08-10,78.67549
2017-08-11,77.12953
2017-08-12,78.67549
2017-08-13,78.67549
2017-08-14,78.67549
2017-08-15,78.67549
2017-08-16,140.55353
2017-08-17,140.55353
2017-08-18,144.41843
2017-08-19,144.41843
2017-08-20,147.39143
2017-08-21,147.39143
2017-08-22,143.52653
2017-08-23,143.52653
2017-08-24,145.07249
2017-08-25,145.07249
2017-08-26,145.07249
2017-08-27,145.07249
2017-08-28,145.07249
2017-08-29,145.07249
2017-08-30,145.07249
2017-08-31,146.62836
2017-09-01,140.4247
2017-09-02,146.62836
2017-09-03,146.62836
2017-09-04,146.62836
2017-09-05,146.62836
2017-09-06,141.97066
2017-09-07,141.97066
2017-09-08,141.97066
2017-09-09,141.97066
2017-09-10,141.97066
2017-09-11,141.97066
2017-09-12,141.97066
2017-09-13,141.97066
2017-09-14,141.97066
2017-09-15,141.97066
2017-09-16,141.97066
2017-09-17,141.97066
2017-09-18,141.97066
2017-09-19,134.04266
2017-09-20,141.97066
2017-09-21,141.97066
2017-09-22,141.97066
2017-09-23,141.97066
2017-09-24,141.97066
2017-09-25,141.97066
2017-09-26,141.97066
2017-09-27,138.86883
2017-09-28,101.766203
2017-09-29,63.81049
2017-09-30,63.81049
2017-10-01,59.1627
2017-10-02,60.28253
2017-10-03,60.28253
2017-10-04,60.28253
2017-10-05,55.62483
2017-10-06,55.62483
2017-10-07,58.72666
2017-10-08,58.72666
2017-10-09,58.72666
2017-10-10,58.72666
2017-10-11,43.86166
2017-10-12,43.86166
2017-10-13,43.86166
2017-10-14,43.86166
2017-10-15,43.86166
2017-10-16,58.72666
2017-10-17,58.72666
2017-10-18,58.72666
2017-10-19,57.1807
2017-10-20,55.62483
2017-10-21,55.62483
2017-10-22,55.62483
2017-10-23,55.62483
2017-10-24,55.62483
2017-10-25,55.62483
2017-10-26,55.62483
2017-10-27,57.1807
2017-10-28,57.1807
2017-10-29,57.1807
2017-10-30,57.1807
2017-10-31,57.1807
2017-11-01,57.1807
2017-11-02,56.1897
2017-11-03,56.1897
2017-11-04,56.1897
2017-11-05,56.1897
2017-11-06,56.1897
2017-11-07,56.1897
2017-11-08,53.08787
2017-11-09,53.08787
2017-11-10,53.85094
2017-11-11,53.85094
2017-11-12,53.85094
2017-11-13,53.85094
2017-11-14,53.85094
2017-11-15,50.87794
2017-11-16,50.87794
2017-11-17,50.87794
2017-11-18,50.87794
2017-11-19,50.87794
2017-11-20,50.87794
2017-11-21,49.39144
2017-11-22,49.39144
2017-11-23,50.2437
2017-11-24,50.2437
2017-11-25,50.2437
2017-11-26,50.2437
2017-11-27,50.2437
2017-11-28,43.8022
2017-11-29,54.66356
2017-11-30,54.66356
2017-12-01,43.8022
2017-12-02,43.8022
2017-12-03,43.8022
2017-12-04,43.8022
2017-12-05,43.8022
2017-12-06,40.70037
2017-12-07,42.24633
2017-12-08,43.8022
2017-12-09,43.8022
2017-12-10,43.8022
2017-12-11,43.8022
2017-12-12,43.8022
2017-12-13,43.8022
2017-12-14,43.8022
2017-12-15,44.56527
2017-12-16,44.56527
2017-12-17,44.56527
2017-12-18,44.56527
2017-12-19,42.08777
2017-12-20,41.3247
2017-12-21,41.3247
2017-12-22,41.3247
2017-12-23,41.3247
2017-12-24,41.3247
2017-12-25,41.3247
2017-12-26,41.3247
2017-12-27,41.3247
2017-12-28,41.3247
2017-12-29,41.3247
2017-12-30,41.3247
2017-12-31,41.3247
2018-01-01,41.3247
2018-01-02,41.3247
2018-01-03,101.082
2018-01-04,93.90716
2018-01-05,101.082
2018-01-06,87.0843727
2018-01-07,69.5174112
2018-01-08,52.8297971
2018-01-09,68.3117772
2018-01-10,52.3386327
2018-01-11,42.87066
2018-01-12,53.0880765
2018-01-13,71.352
2018-01-14,50.0938525
2018-01-15,67.266107
2018-01-16,66.5666262
2018-01-17,49.6671445
2018-01-18,66.0599774
2018-01-19,50.5708126
2018-01-20,39.76883
2018-01-21,42.08777
2018-01-22,29.70027
2018-01-23,56.827615
2018-01-24,58.469
2018-01-25,58.469
2018-01-26,58.469
2018-01-27,54.49509
2018-01-28,47.6671
2018-01-29,47.6671
2018-01-30,35.0208867
2018-01-31,17.90737
2018-02-01,26.33087
2018-02-02,30.19577
2018-02-03,30.19577
2018-02-04,30.19577
2018-02-05,30.19577
2018-02-06,30.19577
2018-02-07,30.19577
2018-02-08,30.19577
2018-02-09,30.19577
2018-02-10,30.19577
2018-02-11,30.19577
2018-02-12,30.19577
2018-02-13,30.19577
2018-02-14,30.19577
2018-02-15,30.19577
2018-02-16,30.19577
2018-02-17,30.19577
2018-02-18,30.19577
2018-02-19,30.19577
2018-02-20,30.19577
2018-02-21,30.19577
2018-02-22,30.19577
2018-02-23,30.19577
2018-02-24,30.19577
2018-02-25,42.08777
2018-02-26,38.22287
2018-02-27,38.22287
2018-02-28,38.22287
2018-03-01,38.22287
2018-03-02,38.22287
2018-03-03,38.22287
2018-03-04,38.22287
2018-03-05,38.22287
2018-03-06,38.22287
2018-03-07,38.22287
2018-03-08,38.22287
2018-03-09,38.22287
2018-03-10,38.22287
2018-03-11,38.22287
2018-03-12,38.22287
2018-03-13,38.22287
2018-03-14,38.22287
2018-03-15,38.22287
2018-03-16,38.22287
2018-03-17,38.22287
2018-03-18,38.22287
2018-03-19,38.22287
2018-03-20,40.70037
2018-03-21,40.70037
2018-03-22,40.70037
2018-03-23,41.69137
2018-03-24,41.69137
2018-03-25,41.69137
2018-03-26,41.69137
2018-03-27,41.69137
2018-03-28,41.69137
2018-03-29,41.69137
2018-03-30,41.69137
2018-03-31,41.69137
2018-04-01,41.69137
2018-04-02,143.365905
2018-04-03,256.111563
2018-04-04,145.25087
2018-04-05,145.25087
2018-04-06,145.25087
2018-04-07,145.25087
2018-04-08,145.25087
2018-04-09,145.25087
2018-04-10,46.15087
2018-04-11,46.15087
2018-04-12,46.15087
2018-04-13,46.15087
2018-04-14,46.15087
2018-04-15,46.15087
2018-04-16,46.15087
2018-04-17,46.15087
2018-04-18,87.9426613
2018-04-19,92.7041273
2018-04-20,157.44017
2018-04-21,138.41297
2018-04-22,113.24157
2018-04-23,92.48012
2018-04-24,102.841603
2018-04-25,83.4060285
2018-04-26,95.5869876
2018-04-27,70.7504217
2018-04-28,87.6328913
2018-04-29,100.823101
2018-04-30,73.0936825
2018-05-01,103.131388
2018-05-02,107.023499
2018-05-03,119.759047
2018-05-04,129.89037
2018-05-05,129.89037
2018-05-06,129.89037
2018-05-07,129.89037
2018-05-08,138.31387
2018-05-09,139.84992
2018-05-10,141.38597
2018-05-11,142.92202
2018-05-12,144.51753
2018-05-13,150.72119
2018-05-14,196.647103
2018-05-15,239.857882
2018-05-16,143.78419
2018-05-17,148.73919
2018-05-18,148.73919
2018-05-19,148.73919
2018-05-20,148.73919
2018-05-21,148.73919
2018-05-22,148.73919
2018-05-23,148.73919
2018-05-24,148.73919
2018-05-25,148.73919
2018-05-26,148.73919
2018-05-27,148.73919
2018-05-28,155.67619
2018-05-29,155.67619
2018-05-30,155.67619
2018-05-31,155.67619
2018-06-01,155.67619
2018-06-02,155.67619
2018-06-03,155.67619
2018-06-04,81.35119
2018-06-05,156.66719
2018-06-06,156.66719
2018-06-07,156.66719
2018-06-08,156.66719
2018-06-09,163.582058
2018-06-10,157.336693
2018-06-11,181.124038
2018-06-12,196.187857
2018-06-13,178.792545
2018-06-14,175.528191
2018-06-15,338.342348
2018-06-16,156.66719
2018-06-17,156.66719
2018-06-18,156.66719
2018-06-19,156.66719
2018-06-20,218.335386
2018-06-21,380.814791
2018-06-22,182.043355
2018-06-23,360.141168
2018-06-24,239.485721
2018-06-25,329.558867
2018-06-26,446.781862
2018-06-27,457.15916
2018-06-28,438.817773
2018-06-29,471.953179
2018-06-30,974.559021
2018-07-01,825.784444
2018-07-02,895.652587
2018-07-03,899.679598
2018-07-04,980.489619
2018-07-05,1030.45254
2018-07-06,1020.73
2018-07-07,881.807862
2018-07-08,731.358
2018-07-09,686.763
2018-07-10,667.976572
2018-07-11,655.231816
2018-07-12,825.485451
2018-07-13,883.972
2018-07-14,769.556095
2018-07-15,738.88386
2018-07-16,655.96306
2018-07-17,620.795856
2018-07-18,670.688824
2018-07-19,335.147868
2018-07-20,495.547153
2018-07-21,731.307168
2018-07-22,803.908282
2018-07-23,869.874321
2018-07-24,926.767094
2018-07-25,749.281059
2018-07-26,520.34763
2018-07-27,343.94963
2018-07-28,244.146846
2018-07-29,219.901701
2018-07-30,600.858948
2018-07-31,734.40363
2018-08-01,516.709132
2018-08-02,703.813525
2018-08-03,623.957795
2018-08-04,471.176192
2018-08-05,407.583392
2018-08-06,398.590067
2018-08-07,563.937343
2018-08-08,745.30463
2018-08-09,670.788037
2018-08-10,524.911309
2018-08-11,680.730657
2018-08-12,529.07322
2018-08-13,405.323912
2018-08-14,413.767645
2018-08-15,693.77263
2018-08-16,742.623562
2018-08-17,674.958784
2018-08-18,681.618841
2018-08-19,613.869126
2018-08-20,704.776653
2018-08-21,688.663612
2018-08-22,677.327026
2018-08-23,537.980452
2018-08-24,540.163831
2018-08-25,515.701987
2018-08-26,447.20192
2018-08-27,577.82563
2018-08-28,574.798125
2018-08-29,562.96191
2018-08-30,591.805502
2018-08-31,577.266293
2018-09-01,420.489196
2018-09-02,397.841573
2018-09-03,459.89663
2018-09-04,372.425643
2018-09-05,335.43789
2018-09-06,336.432152
2018-09-07,286.66409
2018-09-08,245.092301
2018-09-09,280.530998
2018-09-10,349.155064
2018-09-11,419.26563
2018-09-12,372.230582
2018-09-13,350.31185
2018-09-14,407.358795
2018-09-15,355.681544
2018-09-16,436.38685
2018-09-17,408.882058
2018-09-18,423.10745
2018-09-19,447.08965
2018-09-20,427.643463
2018-09-21,411.223006
2018-09-22,397.649403
2018-09-23,392.193453
2018-09-24,420.492449
2018-09-25,388.930874
2018-09-26,363.489757
2018-09-27,373.277493
2018-09-28,352.288717
2018-09-29,389.463
2018-09-30,250.857924
2018-10-01,403.337
2018-10-02,419.193
2018-10-03,409.495611
2018-10-04,364.139275
2018-10-05,389.545418
2018-10-06,328.031075
2018-10-07,396.22546
2018-10-08,378.003984
2018-10-09,362.780284
2018-10-10,385.499
2018-10-11,357.751
2018-10-12,294.015
2018-10-13,325.161882
2018-10-14,285.66566
2018-10-15,281.743778
2018-10-16,221.517404
2018-10-17,232.959986
2018-10-18,226.28494
2018-10-19,187.94282
2018-10-20,222.587106
2018-10-21,198.035329
2018-10-22,222.527151
2018-10-23,236.246968
2018-10-24,130.825213
2018-10-25,156.406227
2018-10-26,57.4546702
2018-10-27,68.70603
2018-10-28,77.5525631
2018-10-29,77.6325038
2018-10-30,78.1521181
2018-10-31,71.33218
2018-11-01,71.33218
2018-11-02,71.33218
2018-11-03,30.70118
2018-11-04,29.9282
2018-11-05,29.9282
2018-11-06,29.9282
2018-11-07,29.9282
2018-11-08,29.9282
2018-11-09,29.9282
2018-11-10,29.9282
2018-11-11,29.9282
2018-11-12,29.9282
2018-11-13,29.9282
2018-11-14,29.9282
2018-11-15,36.667
2018-11-16,36.667
2018-11-17,36.667
2018-11-18,41.27515
2018-11-19,41.27515
2018-11-20,41.27515
2018-11-21,41.27515
2018-11-22,41.27515
2018-11-23,41.27515
2018-11-24,41.27515
2018-11-25,41.27515
2018-11-26,42.8112
2018-11-27,37.8562
2018-11-28,37.8562
2018-11-29,37.8562
2018-11-30,37.8562
2018-12-01,37.8562
2018-12-02,37.8562
2018-12-03,37.8562
2018-12-04,37.8562
2018-12-05,37.8562
2018-12-06,38.16341
2018-12-07,38.16341
2018-12-08,38.16341
2018-12-09,6.45141
2018-12-10,6.45141
2018-12-11,6.45141
2018-12-12,6.45141
2018-12-13,43.11841
2018-12-14,43.11841
2018-12-15,43.11841
2018-12-16,42.8112
2018-12-17,42.8112
2018-12-18,42.8112
2018-12-19,42.8112
2018-12-20,42.8112
2018-12-21,42.8112
2018-12-22,43.11841
2018-12-23,43.11841
2018-12-24,43.11841
2018-12-25,43.11841
2018-12-26,43.11841
2018-12-27,43.11841
2018-12-28,38.20305
2018-12-29,39.7391
2018-12-30,75.0728747
2018-12-31,98.1957125
2019-01-01,68.4
2019-01-02,39.7391
2019-01-03,39.7391
2019-01-04,39.7391
2019-01-05,41.27515
2019-01-06,41.27515
2019-01-07,41.27515
2019-01-08,41.27515
2019-01-09,42.8112
2019-01-10,53.9329453
2019-01-11,43.3957661
2019-01-12,43.6106067
2019-01-13,44.0602729
2019-01-14,43.604
2019-01-15,43.5606438
2019-01-16,42.8112
2019-01-17,56.55637
2019-01-18,40.51208
2019-01-19,40.51208
2019-01-20,40.51208
2019-01-21,40.51208
2019-01-22,40.51208
2019-01-23,40.51208
2019-01-24,40.51208
2019-01-25,42.8112
2019-01-26,42.8112
2019-01-27,42.8112
2019-01-28,41.27515
2019-01-29,39.7391
2019-01-30,36.667
2019-01-31,42.8112
2019-02-01,42.8112
2019-02-02,42.8112
2019-02-03,42.8112
2019-02-04,42.8112
2019-02-05,43.5470175
2019-02-06,42.04813
2019-02-07,42.04813
2019-02-08,42.04813
2019-02-09,42.04813
2019-02-10,42.04813
2019-02-11,112.495843
2019-02-12,129.483234
2019-02-13,136.758
2019-02-14,95.9551854
2019-02-15,66.7290676
2019-02-16,39.7391
2019-02-17,39.7391
2019-02-18,39.7391
2019-02-19,38.20305
2019-02-20,38.20305
2019-02-21,38.20305
2019-02-22,38.20305
2019-02-23,38.20305
2019-02-24,38.20305
2019-02-25,38.20305
2019-02-26,38.20305
2019-02-27,38.20305
2019-02-28,38.20305
2019-03-01,38.20305
2019-03-02,38.20305
2019-03-03,38.20305
2019-03-04,38.20305
2019-03-05,38.20305
2019-03-06,38.20305
2019-03-07,38.20305
2019-03-08,38.20305
2019-03-09,38.20305
2019-03-10,38.20305
2019-03-11,38.20305
2019-03-12,38.20305
2019-03-13,38.20305
2019-03-14,36.667
2019-03-15,36.667
2019-03-16,36.667
2019-03-17,201.444699
2019-03-18,250.763094
2019-03-19,385.058418
2019-03-20,562.72655
2019-03-21,414.856301
2019-03-22,599.555
2019-03-23,211.817001
2019-03-24,202.973564
2019-03-25,233.905606
2019-03-26,232.541619
2019-03-27,176.46737
2019-03-28,154.464569
2019-03-29,65.1058922
2019-03-30,36.667
2019-03-31,36.667
2019-04-01,36.667
2019-04-02,36.667
2019-04-03,36.667
2019-04-04,187.375142
2019-04-05,217.33621
2019-04-06,173.641203
2019-04-07,170.283695
2019-04-08,247.876105
2019-04-09,79.6637648
2019-04-10,41.622
2019-04-11,41.622
2019-04-12,41.622
2019-04-13,41.622
2019-04-14,55.8614313
2019-04-15,164.630701
2019-04-16,246.155398
2019-04-17,109.726658
2019-04-18,44.595
2019-04-19,44.595
2019-04-20,44.595
2019-04-21,44.595
2019-04-22,44.595
2019-04-23,47.568
2019-04-24,47.568
2019-04-25,47.568
2019-04-26,47.568
2019-04-27,47.568
2019-04-28,47.568
2019-04-29,47.568
2019-04-30,0.0
2019-05-01,0.0
2019-05-02,0.0
2019-05-03,0.0
2019-05-04,0.0
2019-05-05,0.0
2019-05-06,0.0
2019-05-07,0.0
2019-05-08,0.0
2019-05-09,0.0
2019-05-10,0.0
2019-05-11,0.0
2019-05-12,0.0
2019-05-13,0.0
2019-05-14,0.0
2019-05-15,0.0
2019-05-16,0.0
2019-05-17,0.0
2019-05-18,0.0
2019-05-19,0.0
2019-05-20,0.0
2019-05-21,0.0
2019-05-22,0.0
2019-05-23,0.0
2019-05-24,0.0
2019-05-25,0.0
2019-05-26,0.0
2019-05-27,0.0
2019-05-28,0.0
2019-05-29,0.0
2019-05-30,0.0
2019-05-31,0.0
2019-06-01,0.0
2019-06-02,0.0
2019-06-03,0.0
2019-06-04,0.0
2019-06-05,0.0
2019-06-06,0.0
2019-06-07,0.0
2019-06-08,0.0
2019-06-09,0.0
2019-06-10,0.0
2019-06-11,0.0
2019-06-12,0.0
2019-06-13,0.0
2019-06-14,0.0
2019-06-15,0.0
2019-06-16,0.0
2019-06-17,0.0
2019-06-18,0.0
2019-06-19,0.0
2019-06-20,0.0
2019-06-21,0.0
2019-06-22,0.0
2019-06-23,0.0
2019-06-24,0.0
2019-06-25,0.0
2019-06-26,0.0
2019-06-27,0.0
2019-06-28,0.0
2019-06-29,0.0
2019-06-30,0.0
2019-07-01,0.0
2019-07-02,64.59338
2019-07-03,64.59338
2019-07-04,64.59338
2019-07-05,66.91232
2019-07-06,66.91232
2019-07-07,66.91232
2019-07-08,66.91232
2019-07-09,66.91232
2019-07-10,69.88532
2019-07-11,69.88532
2019-07-12,69.88532
2019-07-13,69.88532
2019-07-14,69.88532
2019-07-15,69.88532
2019-07-16,69.88532
2019-07-17,69.88532
2019-07-18,69.88532
2019-07-19,69.88532
2019-07-20,69.88532
2019-07-21,69.88532
2019-07-22,74.84032
2019-07-23,74.84032
2019-07-24,74.84032
2019-07-25,71.73849
2019-07-26,71.73849
2019-07-27,71.73849
2019-07-28,62.433
2019-07-29,62.433
2019-07-30,71.73849
2019-07-31,71.73849
2019-08-01,71.73849
2019-08-02,71.73849
2019-08-03,71.73849
2019-08-04,71.73849
2019-08-05,71.73849
2019-08-06,71.73849
2019-08-07,68.63666
2019-08-08,68.63666
2019-08-09,68.63666
2019-08-10,68.63666
2019-08-11,68.63666
2019-08-12,68.63666
2019-08-13,68.63666
2019-08-14,68.63666
2019-08-15,68.63666
2019-08-16,68.63666
2019-08-17,68.63666
2019-08-18,68.63666
2019-08-19,68.63666
2019-08-20,68.63666
2019-08-21,68.63666
2019-08-22,68.63666
2019-08-23,68.63666
2019-08-24,167.73666
2019-08-25,166.14115
2019-08-26,166.14115
2019-08-27,219.15965
2019-08-28,219.15965
2019-08-29,219.15965
2019-08-30,219.15965
2019-08-31,219.15965
2019-09-01,219.15965
2019-09-02,219.15965
2019-09-03,219.15965
2019-09-04,219.15965
2019-09-05,222.62815
2019-09-06,222.62815
2019-09-07,197.85315
2019-09-08,197.85315
2019-09-09,197.85315
2019-09-10,197.85315
2019-09-11,197.85315
2019-09-12,173.07815
2019-09-13,173.07815
2019-09-14,173.07815
2019-09-15,173.07815
2019-09-16,173.07815
2019-09-17,148.30315
2019-09-18,148.30315
2019-09-19,147.98603
2019-09-20,147.98603
2019-09-21,172.76103
2019-09-22,172.76103
2019-09-23,172.76103
2019-09-24,172.76103
2019-09-25,172.76103
2019-09-26,169.78803
2019-09-27,169.78803
2019-09-28,171.32408
2019-09-29,171.32408
2019-09-30,171.32408
2019-10-01,171.32408
2019-10-02,164.88258
2019-10-03,164.88258
2019-10-04,164.88258
2019-10-05,338.315252
2019-10-06,214.43258
2019-10-07,65.78258
2019-10-08,61.81858
2019-10-09,61.81858
2019-10-10,61.81858
2019-10-11,61.81858
2019-10-12,61.81858
2019-10-13,64.92041
2019-10-14,64.92041
2019-10-15,60.46091
2019-10-16,60.46091
2019-10-17,57.35908
2019-10-18,57.35908
2019-10-19,57.35908
2019-10-20,55.81312
2019-10-21,55.81312
2019-10-22,128.788956
2019-10-23,55.81312
2019-10-24,95.0286417
2019-10-25,48.0635
2019-10-26,54.26716
2019-10-27,103.350729
2019-10-28,63.740129
2019-10-29,81.6149199
2019-10-30,69.5438792
2019-10-31,75.2846183
2019-11-01,50.30316
2019-11-02,48.74729
2019-11-03,48.74729
2019-11-04,48.74729
2019-11-05,48.74729
2019-11-06,48.74729
2019-11-07,48.74729
2019-11-08,48.74729
2019-11-09,44.78329
2019-11-10,44.78329
2019-11-11,44.78329
2019-11-12,44.78329
2019-11-13,43.79229
2019-11-14,43.79229
2019-11-15,43.79229
2019-11-16,43.79229
2019-11-17,43.79229
2019-11-18,43.79229
2019-11-19,43.79229
2019-11-20,41.81029
2019-11-21,41.81029
2019-11-22,41.81029
2019-11-23,41.81029
2019-11-24,41.81029
2019-11-25,41.81029
2019-11-26,41.81029
2019-11-27,41.81029
2019-11-28,41.81029
2019-11-29,41.81029
2019-11-30,41.81029
2019-12-01,41.81029
2019-12-02,41.81029
2019-12-03,41.81029
2019-12-04,40.26433
2019-12-05,40.26433
2019-12-06,42.58327
2019-12-07,42.58327
2019-12-08,42.58327
2019-12-09,42.58327
2019-12-10,42.58327
2019-12-11,42.58327
2019-12-12,42.58327
2019-12-13,38.70846
2019-12-14,38.70846
2019-12-15,38.70846
2019-12-16,193.463598
2019-12-17,303.246
2019-12-18,295.318
2019-12-19,162.524
2019-12-20,50.541
2019-12-21,50.541
2019-12-22,43.36616
2019-12-23,43.36616
2019-12-24,43.36616
2019-12-25,43.36616
2019-12-26,43.36616
2019-12-27,43.36616
2019-12-28,43.36616
2019-12-29,43.36616
2019-12-30,43.36616
2019-12-31,43.36616
2020-01-01,43.36616
2020-01-02,43.36616
2020-01-03,43.36616
2020-01-04,43.36616
2020-01-05,43.36616
2020-01-06,43.36616
2020-01-07,43.36616
2020-01-08,43.36616
2020-01-09,43.36616
2020-01-10,43.36616
2020-01-11,43.36616
2020-01-12,41.8202
2020-01-13,41.8202
2020-01-14,60.7961158
2020-01-15,73.1219673
2020-01-16,60.3064792
2020-01-17,41.8202
2020-01-18,68.6203085
2020-01-19,73.4067559
2020-01-20,58.7876065
2020-01-21,45.9721184
2020-01-22,45.7872556
2020-01-23,74.325
2020-01-24,68.7731703
2020-01-25,40.26433
2020-01-26,60.5992371
2020-01-27,74.325
2020-01-28,75.2169
2020-01-29,74.325
2020-01-30,74.325
2020-01-31,70.7916721
2020-02-01,40.26433
2020-02-02,65.7454175
2020-02-03,75.316
2020-02-04,68.7082185
2020-02-05,57.2367328
2020-02-06,74.325
2020-02-07,74.325
2020-02-08,40.26433
2020-02-09,40.26433
2020-02-10,40.26433
2020-02-11,40.26433
2020-02-12,40.26433
2020-02-13,40.26433
2020-02-14,40.26433
2020-02-15,40.26433
2020-02-16,40.26433
2020-02-17,40.26433
2020-02-18,40.26433
2020-02-19,40.26433
2020-02-20,40.26433
2020-02-21,40.26433
2020-02-22,9.54333
2020-02-23,3.10183
2020-02-24,3.10183
2020-02-25,28.5829175
2020-02-26,48.559
2020-02-27,49.55
2020-02-28,48.1683808
2020-02-29,49.55
2020-03-01,48.559
2020-03-02,48.559
2020-03-03,48.559
2020-03-04,49.55
2020-03-05,49.55
2020-03-06,48.559
2020-03-07,48.559
2020-03-08,48.559
2020-03-09,48.559
2020-03-10,48.559
2020-03-11,48.559
2020-03-12,48.559
2020-03-13,40.26433
2020-03-14,40.26433
2020-03-15,40.26433
2020-03-16,40.26433
2020-03-17,40.26433
2020-03-18,40.26433
2020-03-19,40.26433
2020-03-20,40.26433
2020-03-21,40.26433
2020-03-22,40.26433
2020-03-23,40.26433
2020-03-24,40.26433
2020-03-25,37.1625
2020-03-26,37.1625
2020-03-27,37.1625
2020-03-28,40.26433
2020-03-29,40.26433
2020-03-30,40.26433
2020-03-31,40.26433
2020-04-01,40.26433
2020-04-02,40.26433
2020-04-03,40.26433
2020-04-04,40.26433
2020-04-05,40.26433
2020-04-06,40.26433
2020-04-07,139.36433
2020-04-08,139.36433
2020-04-09,139.36433
2020-04-10,139.36433
2020-04-11,139.36433
2020-04-12,164.13933
2020-04-13,164.13933
2020-04-14,139.36433
2020-04-15,143.32833
2020-04-16,143.32833
2020-04-17,143.32833
2020-04-18,143.32833
2020-04-19,143.32833
2020-04-20,143.32833
2020-04-21,168.10333
2020-04-22,172.56283
2020-04-23,172.56283
2020-04-24,172.56283